Time,TemperatureF,DewpointF,PressureIn,WindDirection,WindDirectionDegrees,WindSpeedMPH,WindSpeedGustMPH,Humidity,HourlyPrecipIn,Conditions,Clouds,dailyrainin,SolarRadiationWatts/m^2,SoftwareType,DateUTC
2013-03-20 00:23:00,8.0,1.0,-100.00,NW,306,16.0,21.0,73,0.00,,,0.00,0.000000,,2013-03-20 05:23:00,
2013-03-20 00:32:00,8.0,1.0,-100.00,NW,306,16.0,21.0,73,0.00,,,0.00,0.000000,,2013-03-20 05:32:00,
2013-03-20 00:42:00,8.0,1.0,-100.00,NW,306,16.0,21.0,73,0.00,,,0.00,0.000000,,2013-03-20 05:42:00,
2013-03-20 00:51:00,8.0,1.0,-100.00,WNW,301,14.0,21.0,72,0.00,,,0.00,0.000000,,2013-03-20 05:51:00,
2013-03-20 01:12:00,8.0,1.0,-100.00,WNW,301,14.0,21.0,72,0.00,,,0.00,0.000000,,2013-03-20 06:12:00,
2013-03-20 01:22:00,8.0,1.0,-100.00,WNW,301,14.0,21.0,72,0.00,,,0.00,0.000000,,2013-03-20 06:22:00,
2013-03-20 01:32:00,8.0,1.0,-100.00,WNW,301,14.0,21.0,72,0.00,,,0.00,0.000000,,2013-03-20 06:32:00,
2013-03-20 01:42:00,8.0,1.0,-100.00,WNW,301,14.0,21.0,72,0.00,,,0.00,0.000000,,2013-03-20 06:42:00,
2013-03-20 01:51:00,7.0,0.0,-100.00,WNW,303,14.0,20.0,71,0.00,,,0.00,0.000000,,2013-03-20 06:51:00,
2013-03-20 02:12:00,7.0,0.0,-100.00,WNW,303,14.0,20.0,71,0.00,,,0.00,0.000000,,2013-03-20 07:12:00,
2013-03-20 02:22:00,7.0,0.0,-100.00,WNW,303,14.0,20.0,71,0.00,,,0.00,0.000000,,2013-03-20 07:22:00,
2013-03-20 02:32:00,7.0,0.0,-100.00,WNW,303,14.0,20.0,71,0.00,,,0.00,0.000000,,2013-03-20 07:32:00,
2013-03-20 02:42:00,7.0,0.0,-100.00,WNW,303,14.0,20.0,71,0.00,,,0.00,0.000000,,2013-03-20 07:42:00,
2013-03-20 02:51:00,6.0,-1.0,-100.00,NW,307,17.0,22.0,72,0.00,,,0.00,0.000000,,2013-03-20 07:51:00,
2013-03-20 03:22:00,6.0,-1.0,-100.00,NW,307,17.0,22.0,72,0.00,,,0.00,0.000000,,2013-03-20 08:22:00,
2013-03-20 03:32:00,6.0,-1.0,-100.00,NW,307,17.0,22.0,72,0.00,,,0.00,0.000000,,2013-03-20 08:32:00,
2013-03-20 03:42:00,6.0,-1.0,-100.00,NW,307,17.0,22.0,72,0.00,,,0.00,0.000000,,2013-03-20 08:42:00,
2013-03-20 03:51:00,6.0,-2.0,-100.00,NW,304,15.0,22.0,69,0.00,,,0.00,0.000000,,2013-03-20 08:51:00,
2013-03-20 04:12:00,6.0,-2.0,-100.00,NW,304,15.0,22.0,69,0.00,,,0.00,0.000000,,2013-03-20 09:12:00,
2013-03-20 04:22:00,6.0,-2.0,-100.00,NW,304,15.0,22.0,69,0.00,,,0.00,0.000000,,2013-03-20 09:22:00,
2013-03-20 04:33:00,6.0,-2.0,-100.00,NW,304,15.0,22.0,69,0.00,,,0.00,0.000000,,2013-03-20 09:33:00,
2013-03-20 04:43:00,6.0,-2.0,-100.00,NW,304,15.0,22.0,69,0.00,,,0.00,0.000000,,2013-03-20 09:43:00,
2013-03-20 04:51:00,5.0,-3.0,-100.00,NW,305,13.0,19.0,68,0.00,,,0.00,0.000000,,2013-03-20 09:51:00,
2013-03-20 05:12:00,5.0,-3.0,-100.00,NW,305,13.0,19.0,68,0.00,,,0.00,0.000000,,2013-03-20 10:12:00,
2013-03-20 05:23:00,5.0,-3.0,-100.00,NW,305,13.0,19.0,68,0.00,,,0.00,0.000000,,2013-03-20 10:23:00,
2013-03-20 05:32:00,5.0,-3.0,-100.00,NW,305,13.0,19.0,68,0.00,,,0.00,0.000000,,2013-03-20 10:32:00,
2013-03-20 05:42:00,5.0,-3.0,-100.00,NW,305,13.0,19.0,68,0.00,,,0.00,0.000000,,2013-03-20 10:42:00,
2013-03-20 05:51:00,4.0,-4.0,-100.00,WNW,295,10.0,17.0,67,0.00,,,0.00,0.000000,,2013-03-20 10:51:00,
2013-03-20 06:22:00,4.0,-4.0,-100.00,WNW,295,10.0,17.0,67,0.00,,,0.00,0.000000,,2013-03-20 11:22:00,
2013-03-20 06:32:00,4.0,-4.0,-100.00,WNW,295,10.0,17.0,67,0.00,,,0.00,0.000000,,2013-03-20 11:32:00,
2013-03-20 06:42:00,4.0,-4.0,-100.00,WNW,295,10.0,17.0,67,0.00,,,0.00,0.000000,,2013-03-20 11:42:00,
2013-03-20 06:51:00,3.0,-5.0,-100.00,WNW,295,11.0,16.0,67,0.00,,,0.00,0.000000,,2013-03-20 11:51:00,
2013-03-20 07:22:00,3.0,-5.0,-100.00,WNW,295,11.0,16.0,67,0.00,,,0.00,0.000000,,2013-03-20 12:22:00,
2013-03-20 07:32:00,3.0,-5.0,-100.00,WNW,295,11.0,16.0,67,0.00,,,0.00,0.000000,,2013-03-20 12:32:00,
2013-03-20 07:42:00,3.0,-5.0,-100.00,WNW,295,11.0,16.0,67,0.00,,,0.00,0.000000,,2013-03-20 12:42:00,
2013-03-20 07:51:00,4.0,-5.0,-100.00,NW,304,12.0,19.0,65,0.00,,,0.00,7.000000,,2013-03-20 12:51:00,
2013-03-20 08:22:00,4.0,-5.0,-100.00,NW,304,12.0,19.0,65,0.00,,,0.00,7.000000,,2013-03-20 13:22:00,
2013-03-20 08:32:00,4.0,-5.0,-100.00,NW,304,12.0,19.0,65,0.00,,,0.00,7.000000,,2013-03-20 13:32:00,
2013-03-20 08:42:00,4.0,-5.0,-100.00,NW,304,12.0,19.0,65,0.00,,,0.00,7.000000,,2013-03-20 13:42:00,
2013-03-20 08:51:00,5.0,-5.0,-100.00,WNW,302,12.0,17.0,63,0.00,,,0.00,130.000000,,2013-03-20 13:51:00,
2013-03-20 09:12:00,5.0,-5.0,-100.00,WNW,302,12.0,17.0,63,0.00,,,0.00,130.000000,,2013-03-20 14:12:00,
2013-03-20 09:23:00,5.0,-5.0,-100.00,WNW,302,12.0,17.0,63,0.00,,,0.00,130.000000,,2013-03-20 14:23:00,
2013-03-20 09:33:00,5.0,-5.0,-100.00,WNW,302,12.0,17.0,63,0.00,,,0.00,130.000000,,2013-03-20 14:33:00,
2013-03-20 09:42:00,5.0,-5.0,-100.00,WNW,302,12.0,17.0,63,0.00,,,0.00,130.000000,,2013-03-20 14:42:00,
2013-03-20 09:51:00,8.0,-3.0,-100.00,NW,315,13.0,17.0,60,0.00,,,0.00,337.000000,,2013-03-20 14:51:00,
2013-03-20 10:12:00,8.0,-3.0,-100.00,NW,315,13.0,17.0,60,0.00,,,0.00,337.000000,,2013-03-20 15:12:00,
2013-03-20 10:22:00,8.0,-3.0,-100.00,NW,315,13.0,17.0,60,0.00,,,0.00,337.000000,,2013-03-20 15:22:00,
2013-03-20 10:33:00,8.0,-3.0,-100.00,NW,315,13.0,17.0,60,0.00,,,0.00,337.000000,,2013-03-20 15:33:00,
2013-03-20 10:43:00,8.0,-3.0,-100.00,NW,315,13.0,17.0,60,0.00,,,0.00,337.000000,,2013-03-20 15:43:00,
2013-03-20 10:51:00,11.0,-1.0,-100.00,NW,307,13.0,17.0,58,0.00,,,0.00,533.000000,,2013-03-20 15:51:00,
2013-03-20 11:12:00,11.0,-1.0,-100.00,NW,307,13.0,17.0,58,0.00,,,0.00,533.000000,,2013-03-20 16:12:00,
2013-03-20 11:23:00,11.0,-1.0,-100.00,NW,307,13.0,17.0,58,0.00,,,0.00,533.000000,,2013-03-20 16:23:00,
2013-03-20 11:33:00,11.0,-1.0,-100.00,NW,307,13.0,17.0,58,0.00,,,0.00,533.000000,,2013-03-20 16:33:00,
2013-03-20 11:42:00,11.0,-1.0,-100.00,NW,307,13.0,17.0,58,0.00,,,0.00,533.000000,,2013-03-20 16:42:00,
2013-03-20 11:51:00,14.0,1.0,-100.00,WNW,302,12.0,17.0,56,0.00,,,0.00,695.000000,,2013-03-20 16:51:00,
2013-03-20 12:12:00,14.0,1.0,-100.00,WNW,302,12.0,17.0,56,0.00,,,0.00,695.000000,,2013-03-20 17:12:00,
2013-03-20 12:22:00,14.0,1.0,-100.00,WNW,302,12.0,17.0,56,0.00,,,0.00,695.000000,,2013-03-20 17:22:00,
2013-03-20 12:32:00,14.0,1.0,-100.00,WNW,302,12.0,17.0,56,0.00,,,0.00,695.000000,,2013-03-20 17:32:00,
2013-03-20 12:42:00,14.0,1.0,-100.00,WNW,302,12.0,17.0,56,0.00,,,0.00,695.000000,,2013-03-20 17:42:00,
2013-03-20 12:51:00,16.0,2.0,-100.00,NW,305,12.0,17.0,54,0.00,,,0.00,806.000000,,2013-03-20 17:51:00,
2013-03-20 13:12:00,16.0,2.0,-100.00,NW,305,12.0,17.0,54,0.00,,,0.00,806.000000,,2013-03-20 18:12:00,
2013-03-20 13:22:00,16.0,2.0,-100.00,NW,305,12.0,17.0,54,0.00,,,0.00,806.000000,,2013-03-20 18:22:00,
2013-03-20 13:33:00,16.0,2.0,-100.00,NW,305,12.0,17.0,54,0.00,,,0.00,806.000000,,2013-03-20 18:33:00,
2013-03-20 13:42:00,16.0,2.0,-100.00,NW,305,12.0,17.0,54,0.00,,,0.00,806.000000,,2013-03-20 18:42:00,
2013-03-20 13:51:00,18.0,4.0,-100.00,NW,322,12.0,18.0,54,0.00,,,0.00,855.000000,,2013-03-20 18:51:00,
2013-03-20 14:22:00,18.0,4.0,-100.00,NW,322,12.0,18.0,54,0.00,,,0.00,855.000000,,2013-03-20 19:22:00,
2013-03-20 14:32:00,18.0,4.0,-100.00,NW,322,12.0,18.0,54,0.00,,,0.00,855.000000,,2013-03-20 19:32:00,
2013-03-20 14:42:00,18.0,4.0,-100.00,NW,322,12.0,18.0,54,0.00,,,0.00,855.000000,,2013-03-20 19:42:00,
2013-03-20 14:51:00,19.0,4.0,-100.00,NW,323,12.0,19.0,51,0.00,,,0.00,840.000000,,2013-03-20 19:51:00,
2013-03-20 15:13:00,19.0,4.0,-100.00,NW,323,12.0,19.0,51,0.00,,,0.00,840.000000,,2013-03-20 20:13:00,
2013-03-20 15:22:00,19.0,4.0,-100.00,NW,323,12.0,19.0,51,0.00,,,0.00,840.000000,,2013-03-20 20:22:00,
2013-03-20 15:32:00,19.0,4.0,-100.00,NW,323,12.0,19.0,51,0.00,,,0.00,840.000000,,2013-03-20 20:32:00,
2013-03-20 15:42:00,19.0,4.0,-100.00,NW,323,12.0,19.0,51,0.00,,,0.00,840.000000,,2013-03-20 20:42:00,
2013-03-20 15:51:00,19.0,4.0,-100.00,NW,326,13.0,20.0,52,0.00,,,0.00,760.000000,,2013-03-20 20:51:00,
2013-03-20 16:12:00,19.0,4.0,-100.00,NW,326,13.0,20.0,52,0.00,,,0.00,760.000000,,2013-03-20 21:12:00,
2013-03-20 16:22:00,19.0,4.0,-100.00,NW,326,13.0,20.0,52,0.00,,,0.00,760.000000,,2013-03-20 21:22:00,
2013-03-20 16:33:00,19.0,4.0,-100.00,NW,326,13.0,20.0,52,0.00,,,0.00,760.000000,,2013-03-20 21:33:00,
2013-03-20 16:42:00,19.0,4.0,-100.00,NW,326,13.0,20.0,52,0.00,,,0.00,760.000000,,2013-03-20 21:42:00,
2013-03-20 16:51:00,18.0,4.0,-100.00,NW,322,13.0,20.0,53,0.00,,,0.00,623.000000,,2013-03-20 21:51:00,
2013-03-20 17:23:00,18.0,4.0,-100.00,NW,322,13.0,20.0,53,0.00,,,0.00,623.000000,,2013-03-20 22:23:00,
2013-03-20 17:33:00,18.0,4.0,-100.00,NW,322,13.0,20.0,53,0.00,,,0.00,623.000000,,2013-03-20 22:33:00,
2013-03-20 17:42:00,18.0,4.0,-100.00,NW,322,13.0,20.0,53,0.00,,,0.00,623.000000,,2013-03-20 22:42:00,
2013-03-20 17:51:00,17.0,4.0,-100.00,NW,318,14.0,19.0,56,0.00,,,0.00,441.000000,,2013-03-20 22:51:00,
2013-03-20 18:12:00,17.0,4.0,-100.00,NW,318,14.0,19.0,56,0.00,,,0.00,441.000000,,2013-03-20 23:12:00,
2013-03-20 18:22:00,17.0,4.0,-100.00,NW,318,14.0,19.0,56,0.00,,,0.00,441.000000,,2013-03-20 23:22:00,
2013-03-20 18:32:00,17.0,4.0,-100.00,NW,318,14.0,19.0,56,0.00,,,0.00,441.000000,,2013-03-20 23:32:00,
2013-03-20 18:42:00,17.0,4.0,-100.00,NW,318,14.0,19.0,56,0.00,,,0.00,441.000000,,2013-03-20 23:42:00,
2013-03-20 18:51:00,16.0,4.0,-100.00,NW,318,10.0,17.0,59,0.00,,,0.00,231.000000,,2013-03-20 23:51:00,
2013-03-20 19:12:00,16.0,4.0,-100.00,NW,318,10.0,17.0,59,0.00,,,0.00,231.000000,,2013-03-21 00:12:00,
2013-03-20 19:23:00,16.0,4.0,-100.00,NW,318,10.0,17.0,59,0.00,,,0.00,231.000000,,2013-03-21 00:23:00,
2013-03-20 19:33:00,16.0,4.0,-100.00,NW,318,10.0,17.0,59,0.00,,,0.00,231.000000,,2013-03-21 00:33:00,
2013-03-20 19:42:00,16.0,4.0,-100.00,NW,318,10.0,17.0,59,0.00,,,0.00,231.000000,,2013-03-21 00:42:00,
2013-03-20 19:51:00,12.0,2.0,-100.00,NW,313,6.0,14.0,62,0.00,,,0.00,43.000000,,2013-03-21 00:51:00,
2013-03-20 20:12:00,12.0,2.0,-100.00,NW,313,6.0,14.0,62,0.00,,,0.00,43.000000,,2013-03-21 01:12:00,
2013-03-20 20:22:00,12.0,2.0,-100.00,NW,313,6.0,14.0,62,0.00,,,0.00,43.000000,,2013-03-21 01:22:00,
2013-03-20 20:32:00,12.0,2.0,-100.00,NW,313,6.0,14.0,62,0.00,,,0.00,43.000000,,2013-03-21 01:32:00,
2013-03-20 20:42:00,12.0,2.0,-100.00,NW,313,6.0,14.0,62,0.00,,,0.00,43.000000,,2013-03-21 01:42:00,
2013-03-20 20:51:00,9.0,0.0,-100.00,NW,305,4.0,9.0,67,0.00,,,0.00,0.000000,,2013-03-21 01:51:00,
2013-03-20 21:22:00,9.0,0.0,-100.00,NW,305,4.0,9.0,67,0.00,,,0.00,0.000000,,2013-03-21 02:22:00,
2013-03-20 21:32:00,9.0,0.0,-100.00,NW,305,4.0,9.0,67,0.00,,,0.00,0.000000,,2013-03-21 02:32:00,
2013-03-20 21:42:00,9.0,0.0,-100.00,NW,305,4.0,9.0,67,0.00,,,0.00,0.000000,,2013-03-21 02:42:00,
2013-03-20 21:51:00,7.0,-1.0,-100.00,NW,308,5.0,6.0,70,0.00,,,0.00,0.000000,,2013-03-21 02:51:00,
2013-03-20 22:12:00,7.0,-1.0,-100.00,NW,308,5.0,6.0,70,0.00,,,0.00,0.000000,,2013-03-21 03:12:00,
2013-03-20 22:22:00,7.0,-1.0,-100.00,NW,308,5.0,6.0,70,0.00,,,0.00,0.000000,,2013-03-21 03:22:00,
2013-03-20 22:33:00,7.0,-1.0,-100.00,NW,308,5.0,6.0,70,0.00,,,0.00,0.000000,,2013-03-21 03:33:00,
2013-03-20 22:43:00,7.0,-1.0,-100.00,NW,308,5.0,6.0,70,0.00,,,0.00,0.000000,,2013-03-21 03:43:00,
2013-03-20 22:51:00,6.0,-2.0,-100.00,NNW,348,5.0,6.0,70,0.00,,,0.00,0.000000,,2013-03-21 03:51:00,
2013-03-20 23:23:00,6.0,-2.0,-100.00,NNW,348,5.0,6.0,70,0.00,,,0.00,0.000000,,2013-03-21 04:23:00,
2013-03-20 23:33:00,6.0,-2.0,-100.00,NNW,348,5.0,6.0,70,0.00,,,0.00,0.000000,,2013-03-21 04:33:00,
2013-03-20 23:43:00,6.0,-2.0,-100.00,NNW,348,5.0,6.0,70,0.00,,,0.00,0.000000,,2013-03-21 04:43:00,
2013-03-20 23:51:00,4.0,-3.0,-100.00,WNW,286,5.0,6.0,71,0.00,,,0.00,0.000000,,2013-03-21 04:51:00,